User: anonymous
Location: NJAA Observatory
(40.6819°N, 74.8979°W)
Time: 13:34:10
(UTC-04:00)
Language:

Cosmos 220 Rocket - Orbit

View from above orbital plane
View from above orbital plane
View from above satellite
View from above satellite

Ground track
Ground track

The orbit data is extracted from the following two-line orbital elements,

1 03230U 68040B   14259.44132847  .00001634  00000-0  18064-3 0  3462
2 03230 074.0354 091.9041 0032471 309.4055 050.4251 14.87961274485924
Epoch (UTC): 16 September 2014 10:35:30
Eccentricity: 0.0032471
inclination: 74.0354°
perigee height: 581 km
apogee height: 627 km
right ascension of ascending node: 91.9041°
argument of perigee: 309.4055°
revolutions per day: 14.87961274
mean anomaly at epoch: 50.4251°
orbit number at epoch: 48592

The dashed part of the orbit path shows where the satellite is in the earth's shadow,  

DLR